RH
92 87 93 90 91 71 48 35 25 32 23 30 63 73 73 50 47 46 44 54 58 59 58 59 65 71 63 64 56 83 82 92 97 69 75 94 85 96 93 94 84 89 93 96
91 84 89 92 92 75 68 55 43 33 24 40 51 52 52 50 47 45 48 53 53 52 62 83 72 61 48 46 54 80 76 92 92 64 61 71 98 89 83 89 94 90 95 95
90 93 83 84 84 84 71 58 63 44 41 51 50 59 56 59 48 52 52 56 49 54 71 68 86 68 49 44 50 45 53 92 90 91 74 92 94 91 89 87 94 93 96 93
92 89 79 92 84 74 74 60 65 60 67 61 67 66 62 62 65 61 64 63 65 73 80 76 77 64 56 52 50 68 79 95 78 80 74 84 85 100 96 93 96 95 96 95
96 88 72 89 93 94 85 68 68 75 74 71 80 79 83 70 62 64 66 81 63 84 90 82 85 72 72 79 66 92 84 96 93 90 74 82 86 80 89 91 94 94 96 95
96 94 96 81 84 93 99 96 87 95 88 95 92 84 73 66 58 57 54 63 72 74 67 58 55 58 60 63 84 89 86 95 93 97 81 84 94 100 99 98 94 96 96 96
96 95 80 79 92 98 98 96 97 97 90 90 78 75 68 71 76 72 61 68 71 59 56 57 59 66 79 88 86 69 96 93 89 96 93 100 91 89 69 94 94 93 90 91
92 95 98 97 96 95 98 96 96 96 96 86 89 97 96 91 89 88 93 95 90 73 59 75 78 75 74 94 92 95 88 92 96 98 92 86 96 93 94 96 99 95 95 92
99 98 92 97 95 88 97 97 97 98 97 89 72 90 94 94 98 91 91 77 67 62 61 85 98 93 87 92 96 91 89 90 93 87 94 95 98 82 96 97 95 95 96 94
96 90 92 96 92 85 97 94 84 99 97 96 96 93 92 92 95 96 76 73 76 64 79 88 95 97 91 95 93 90 90 93 97 94 100 97 92 94 98 89 86 96 99 99
94 94 90 87 92 87 94 91 90 94 97 91 96 97 96 96 95 95 84 82 84 83 96 96 97 97 96 88 94 94 93 96 97 93 99 95 95 84 92 95 98 100 100 100
88 90 91 91 91 97 100 95 96 91 99 97 97 100 100 99 98 95 88 66 90 80 92 97 97 90 91 97 99 88 92 98 96 95 95 98 100 100 100 99 99 100 100 100
92 95 92 98 96 69 75 84 100 98 93 95 96 94 96 97 97 96 90 89 94 94 76 86 97 94 94 96 99 97 96 98 98 96 96 100 100 98 98 100 100 100 100 100
92 93 91 76 68 58 66 95 100 96 91 95 97 97 94 96 96 98 87 86 97 92 89 91 95 93 88 96 96 88 100 93 98 99 98 99 100 99 97 97 100 99 98 100
90 96 72 72 61 68 89 98 99 98 98 95 95 95 96 96 95 95 99 98 93 94 93 94 98 96 91 97 86 98 100 99 100 99 99 98 99 100 100 97 97 100 97 91
92 93 90 86 57 52 100 99 95 93 97 93 92 95 96 96 95 95 91 91 89 88 89 98 98 98 92 98 100 100 99 100 100 99 100 100 99 100 100 99 98 100 100 99
95 91 96 89 62 59 68 91 61 72 97 94 94 95 93 95 95 86 67 73 88 86 96 96 97 96 81 97 99 98 99 100 100 100 100 98 100 99 100 100 100 99 100 100
58 86 96 96 77 76 77 81 56 75 94 93 95 90 90 92 96 97 70 70 78 86 96 96 93 77 73 98 100 100 100 99 96 97 100 98 100 100 100 99 100 97 94 94
80 83 96 74 59 71 92 100 63 49 76 90 85 94 94 90 97 96 80 70 92 82 93 84 67 80 100 100 100 100 100 100 100 98 100 98 97 100 100 100 97 96 96 98
73 87 71 48 44 61 63 75 39 45 54 66 94 97 92 98 95 94 94 77 96 100 96 68 90 100 100 100 100 100 100 100 99 95 94 98 96 95 98 100 100 100 100 100
50 48 40 36 31 37 38 57 77 72 90 89 90 94 96 94 97 96 96 97 91 97 97 80 98 100 100 100 100 99 100 99 100 100 100 100 100 100 100 97 100 99 100 100
41 34 28 24 27 32 60 93 73 90 100 91 100 99 100 94 99 96 94 97 83 100 74 85 100 99 100 99 100 100 98 100 100 99 100 100 100 100 100 100 100 100 100 99
19 16 29 39 66 89 98 100 91 98 82 82 99 95 100 94 96 96 87 91 100 67 91 100 100 100 100 98 100 98 100 100 99 100 99 98 100 100 100 100 99 99 99 100
24 43 89 92 100 100 100 100 99 88 96 100 100 100 99 86 92 90 91 96 76 91 97 100 99 100 100 100 100 100 100 100 100 100 100 100 99 98 100 100 100 99 98 98
55 62 100 100 95 94 91 98 100 100 100 100 99 90 71 84 87 80 74 82 98 98 100 99 100 100 100 100 100 100 100 100 99 100 100 100 100 99 96 98 97 97 96 94
65 88 93 92 83 88 96 96 99 96 100 91 72 80 90 97 97 92 100 92 100 100 99 100 100 100 100 100 100 100 100 100 100 100 100 100 100 98 95 93 96 95 95 93
71 82 88 92 99 100 100 100 93 79 84 95 74 92 100 83 96 100 100 100 99 100 100 98 100 100 100 100 100 100 100 100 100 98 98 98 98 97 98 95 93 93 91 92
Wind_Speed
13 14 16 18 20 22 23 7 2 7 6 3 2 2 3 1 1 2 2 2 5 5 4 3 4 5 6 6 2 3 5 2 4 7 2 2 4 1 2 2 6 4 1 1
19 18 15 17 15 18 22 14 5 6 6 2 0 1 1 2 2 3 2 3 5 4 5 2 3 4 5 9 1 3 4 2 3 7 5 4 5 3 5 9 5 3 3 2
12 15 16 15 15 15 17 6 3 4 7 4 4 1 2 2 3 4 5 4 3 3 4 5 4 4 3 7 11 18 13 2 4 4 6 2 4 5 8 6 2 2 4 4
15 16 15 13 13 14 13 3 2 1 3 1 4 3 1 3 3 5 4 3 6 5 3 2 5 5 4 8 7 3 2 3 3 3 8 6 2 2 6 8 7 3 3 3
12 15 16 14 16 16 11 5 3 5 4 4 4 6 5 6 4 5 5 6 5 5 6 8 7 4 3 5 1 1 1 2 3 5 9 4 5 8 4 5 5 3 4 2
13 15 13 16 17 16 9 9 11 7 5 3 4 5 7 8 6 9 18 9 3 5 10 16 21 20 16 9 6 5 3 2 2 3 11 6 2 3 2 1 5 3 4 4
16 16 18 14 14 14 13 13 11 4 3 5 6 3 8 10 16 15 10 11 7 5 4 11 11 7 6 8 7 9 4 3 3 1 1 2 2 4 5 6 4 7 5 9
16 16 17 14 12 13 20 20 16 7 4 9 8 14 12 16 23 20 17 16 15 10 3 1 4 2 1 2 2 6 6 3 2 3 2 1 2 4 3 2 1 6 7 12
17 20 20 18 20 21 18 21 16 18 7 7 13 5 5 3 3 0 3 5 9 6 3 2 2 3 2 2 2 5 5 3 1 2 3 4 0 3 5 0 1 11 12 13
18 20 18 17 18 20 18 18 14 14 6 2 2 3 4 3 2 2 1 4 4 7 2 3 3 3 2 1 2 2 1 2 2 2 2 2 3 10 3 4 3 9 10 12
18 19 20 18 20 17 17 16 10 10 6 10 9 6 3 3 4 3 4 2 1 2 2 2 3 2 1 4 2 3 2 2 1 2 3 2 12 2 1 2 3 7 9 10
21 19 18 17 17 13 15 18 13 10 9 7 6 3 4 7 7 6 5 1 2 4 3 1 1 1 2 1 2 3 1 1 2 1 3 0 6 9 6 5 4 8 10 11
18 17 17 16 18 16 11 10 11 7 6 3 2 5 6 4 6 7 4 4 4 4 4 5 2 5 1 2 2 3 2 4 2 2 2 2 4 5 6 6 7 8 9 11
17 17 17 16 12 13 10 5 4 7 4 3 6 5 8 8 4 3 4 5 6 8 6 6 3 3 7 2 3 3 3 5 1 1 1 1 3 6 7 7 7 8 9 10
16 16 15 9 11 10 6 2 4 2 5 3 5 8 15 13 10 4 4 7 9 6 6 5 3 4 4 4 4 3 7 2 1 1 2 1 2 4 7 7 9 9 11 11
14 14 11 6 11 10 2 3 5 14 2 5 2 4 14 11 18 15 11 10 10 10 7 5 5 6 5 3 3 5 8 6 6 3 5 1 4 2 7 7 9 8 10 12
10 11 6 6 11 7 6 6 18 13 3 4 4 3 7 8 8 10 14 18 14 9 6 6 5 7 7 3 2 11 7 7 9 7 3 2 5 5 7 8 8 8 10 10
4 7 6 5 7 6 6 11 16 10 5 8 3 3 4 17 8 4 7 6 8 11 6 5 4 5 6 3 5 9 9 5 9 6 5 5 6 6 7 8 7 8 10 10
3 4 4 3 3 4 6 7 10 19 13 6 6 4 3 14 10 6 4 5 4 5 5 5 5 3 5 4 8 11 11 9 9 7 5 6 7 7 8 9 9 9 10 10
0 1 0 3 6 4 4 1 4 11 12 9 6 13 3 10 8 8 3 5 2 3 3 4 3 2 8 10 9 9 9 8 8 8 10 9 8 10 9 10 10 11 11 10
1 2 4 5 7 4 6 7 10 11 6 11 10 10 7 11 3 3 7 2 2 3 2 3 2 2 5 12 10 10 9 9 8 6 6 8 9 10 11 11 9 10 10 10
6 7 9 9 11 10 9 4 7 6 1 13 9 11 9 8 7 6 7 3 4 3 2 3 2 2 10 13 11 12 11 9 10 8 9 9 7 9 9 9 9 10 10 10
6 5 7 10 12 13 7 7 5 4 12 8 17 10 8 8 9 4 5 5 3 3 3 2 0 8 11 13 11 13 10 9 11 9 9 9 7 6 7 10 10 10 9 9
9 9 9 5 5 3 1 2 4 9 10 19 19 7 5 6 6 5 5 3 4 3 3 1 4 12 12 12 12 14 15 13 13 11 11 11 9 8 9 10 11 10 10 10
9 9 5 3 5 4 10 11 9 7 12 14 8 3 5 7 4 4 4 5 4 3 2 2 12 13 11 13 14 16 16 16 15 13 12 12 10 10 9 10 10 10 10 11
10 12 5 11 7 12 14 14 14 13 11 4 3 4 4 5 2 5 4 3 3 2 6 13 15 18 16 15 15 15 16 16 15 14 13 13 12 11 11 10 11 11 13 13
8 7 16 9 6 8 13 15 19 11 6 4 4 6 2 2 4 4 3 1 3 13 16 15 16 16 14 13 14 15 16 15 14 14 12 12 12 11 11 13 11 12 13 13
Wind_Direction
331 334 334 334 341 351 357 354 323 343 346 42 68 115 195 284 259 154 255 200 221 217 200 221 230 228 215 200 304 240 213 176 263 264 271 312 109 182 322 289 317 329 339 90
312 309 326 339 350 355 359 336 307 357 8 110 35 300 283 252 219 203 191 253 208 193 181 260 228 237 249 290 277 234 195 241 271 335 356 4 53 344 316 282 239 268 293 74
355 345 335 334 339 346 350 333 345 13 52 80 117 57 282 283 251 249 213 239 229 186 218 219 248 234 281 288 285 285 283 150 193 205 215 182 3 338 328 343 355 36 26 7
329 327 334 323 331 333 344 315 262 143 298 215 149 151 266 233 247 221 203 249 201 181 251 240 225 245 261 297 293 24 113 218 159 150 120 102 79 267 356 32 360 46 7 33
333 328 332 335 326 314 314 278 238 219 255 237 167 200 217 211 228 181 236 211 199 169 196 201 245 262 213 230 300 102 270 256 174 185 180 139 83 36 40 30 6 39 8 351
324 316 322 319 317 327 307 269 256 245 214 179 156 215 213 223 219 225 235 215 182 209 238 256 271 268 258 229 180 175 195 141 153 257 181 187 301 337 52 131 27 333 17 326
328 318 316 319 326 328 336 328 329 248 260 206 216 246 224 244 250 253 251 224 169 217 240 287 274 271 277 250 231 204 178 181 153 168 112 269 224 50 94 120 49 17 350 346
325 320 323 319 322 315 312 308 298 274 255 231 246 240 250 267 270 268 239 214 230 251 256 359 326 297 264 121 83 199 188 172 112 173 133 303 353 350 21 27 47 17 350 348
323 314 308 309 310 306 290 284 289 272 258 225 251 283 269 284 300 308 224 178 185 181 160 108 191 249 313 173 40 103 125 56 162 135 154 212 159 350 343 94 288 5 8 2
323 319 318 318 309 306 293 299 294 276 305 296 262 253 237 217 205 206 277 168 150 182 147 182 201 249 205 254 86 11 69 44 150 150 133 289 332 307 315 73 243 347 357 3
321 321 316 313 312 315 310 309 297 286 278 292 296 285 245 253 209 187 152 102 310 89 115 154 210 175 188 85 39 13 30 3 68 119 82 286 349 93 145 284 331 347 358 358
324 324 325 318 314 314 312 300 306 281 255 281 287 303 306 265 245 177 157 232 149 155 99 160 169 126 78 146 157 14 82 58 110 83 168 219 45 75 57 25 359 359 352 357
328 328 323 313 318 319 322 307 277 254 248 308 159 347 3 207 173 176 179 195 173 141 112 137 102 86 308 86 61 114 73 19 91 181 334 41 54 44 31 15 8 4 358 355
329 327 314 325 334 327 324 307 260 242 234 105 52 66 52 33 105 135 186 157 147 131 97 71 61 82 27 60 94 75 346 345 32 77 330 270 52 30 15 11 1 357 3 1
332 322 320 329 346 334 337 137 116 109 219 119 153 59 50 56 66 105 138 148 135 99 70 51 57 73 86 62 76 40 356 343 36 95 351 311 5 11 7 4 4 1 357 1
335 320 313 331 359 350 294 271 355 5 58 127 107 79 42 61 58 74 91 98 82 84 81 76 72 41 98 81 75 13 17 29 21 332 332 46 8 356 0 1 355 358 352 350
326 307 310 33 19 12 80 40 337 350 140 89 108 84 18 46 54 52 57 70 70 75 81 61 58 30 60 64 64 346 16 42 31 28 21 3 12 2 352 350 350 351 346 348
306 291 242 40 14 47 46 19 6 1 101 69 48 357 36 16 4 37 32 69 57 44 79 67 57 41 59 60 0 21 28 32 24 16 24 11 0 356 351 351 351 353 357 360
313 265 352 20 27 42 19 352 351 41 63 84 50 6 342 352 5 13 49 55 67 57 65 48 69 34 46 326 15 26 25 20 359 12 11 5 4 358 355 358 356 355 2 0
125 276 317 63 3 16 30 265 33 32 38 50 40 354 325 349 341 21 55 48 68 66 52 75 67 75 45 29 21 9 1 356 349 357 355 354 345 345 349 348 346 347 348 349
135 70 69 45 31 40 45 45 38 4 37 13 352 356 333 4 349 357 26 92 40 71 28 84 52 19 13 12 9 6 360 356 351 345 332 324 324 331 327 331 332 334 336 339
80 95 83 37 29 32 63 16 11 34 31 353 350 334 323 323 349 6 8 79 44 71 47 68 52 286 10 1 4 357 355 355 348 345 331 325 329 321 333 333 329 329 329 330
68 58 53 17 9 37 51 355 334 346 347 347 333 326 331 346 2 40 35 60 58 79 47 66 31 343 358 2 0 358 2 351 346 348 341 333 320 323 320 324 322 321 325 329
55 44 31 64 5 23 219 260 275 289 297 319 328 322 353 355 17 11 67 15 52 57 52 83 320 355 345 352 351 347 354 350 343 339 338 343 332 317 317 323 328 324 325 327
64 46 51 48 346 328 340 340 323 313 316 325 333 314 11 8 48 24 43 36 48 46 36 10 345 345 344 340 341 338 335 339 338 336 330 330 325 321 321 320 323 323 321 323
61 45 43 2 2 345 355 357 349 353 344 352 7 41 49 27 58 45 15 67 36 346 330 325 329 330 325 322 327 332 330 330 329 328 325 324 322 316 314 320 320 315 318 317
55 41 33 23 351 333 352 358 354 6 13 40 40 51 252 321 45 25 21 78 289 319 327 328 330 328 332 331 331 332 333 333 334 332 331 327 321 318 318 316 318 312 314 311